User: anonymous   Login
Location: Unspecified
(0.0000°N, 0.0000°E)
Time: 16:03:54
(UTC+00:00)
Language:

MERIDIAN 1 - Orbit

View from above orbital plane
View from above orbital plane
View from above satellite
View from above satellite

Ground track
Ground track

The orbit data is extracted from the following two-line orbital elements,

1 29668U 06061A   18262.41500289 +.00000053 +00000-0 -73021-3 0  9997
2 29668 064.1955 031.5843 7390303 234.7382 033.1540 02.00618381086000
Epoch (UTC): 19 September 2018 09:57:36
Eccentricity: 0.7390303
inclination: 64.1955°
perigee height: 552 km
apogee height: 39802 km
right ascension of ascending node: 31.5843°
argument of perigee: 234.7382°
revolutions per day: 2.00618381
mean anomaly at epoch: 33.1540°
orbit number at epoch: 8600

The dashed part of the orbit path shows where the satellite is in the earth's shadow,  

DLR